Flag for Germany Weather past 2 weeks in Lünen, North Rhine-Westphalia, Germany

Now
55 °F

Overcast.


Feels Like: 54 °F
Forecast: 44 / 51 °F
Wind: 5 mph from Southwest

Location: Muenster / Osnabrueck

Current Time: Oct 21, 2014 at 4:43:44 AM

Latest Report: Oct 21, 2014 at 4:00 AM


Visibility: 16 mi

Pressure: 29.85 "Hg

Humidity: 86%

Dew point: 51 °F

Location of LünenLocation

Historic Weather in Lünen — Graph

°F

Lünen temperature yesterday

Maximum temperature yesterday: 62 °F (at 4:00 PM)
Minimum temperature yesterday: 56 °F (at 11:00 PM)
Average temperature yesterday: 59 °F

Past Weeks' High & Low Weather Summary

 TemperatureHumidityPressure
High73 °F (Oct 19, 4:00 PM)100% (Oct 6, 4:00 AM)30.11 "Hg (Oct 6, 4:00 AM)
Low46 °F (Oct 11, 8:00 AM)51% (Oct 14, 3:00 PM)29.50 "Hg (Oct 7, 11:00 AM)
Average57 °F84%29.83 "Hg
* Reported Oct 6 3:00 AM — Oct 21 3:00 AM, Lünen, Weather by CustomWeather, © 2014

Note: Actual official high and low records may vary slightly from our data, if they occured in-between our weather recording intervals... More about our weather records

Advertising

Lünen weather history for previous 24 hours

 ConditionsComfort  
Time TempWeatherWind HumidityBarometerVisibility
3:00 AM
Oct 21
54 °FOvercast.3 mph88%29.86 "Hg16 mi
2:00 AM54 °FOvercast.3 mph84%29.88 "Hg16 mi
1:00 AM55 °FOvercast.3 mph81%29.89 "Hg16 mi
12:00 AM56 °FOvercast.3 mph80%29.90 "Hg16 mi
11:00 PM
Oct 20
56 °FOvercast.3 mph79%29.91 "Hg16 mi
10:00 PM57 °FOvercast.5 mph73%29.93 "Hg16 mi
9:00 PM58 °FOvercast.6 mph72%29.93 "Hg16 mi
8:00 PM58 °FOvercast.3 mph76%29.94 "Hg16 mi
7:00 PM60 °FPassing clouds.3 mph74%29.93 "Hg16 mi
6:00 PM60 °FOvercast.6 mph71%29.93 "Hg16 mi
5:00 PM61 °FOvercast.6 mph72%29.95 "Hg19 mi
4:00 PM62 °FPartly sunny.7 mph70%29.96 "Hg19 mi
3:00 PM60 °FOvercast.7 mph74%29.98 "Hg16 mi
2:00 PM61 °FOvercast.7 mph71%29.98 "Hg16 mi
1:00 PM60 °FOvercast.6 mph77%29.99 "Hg16 mi
12:00 PM59 °FPartly sunny.8 mph78%29.98 "Hg16 mi
11:00 AM58 °FOvercast.7 mph81%29.98 "Hg9 mi
10:00 AM58 °FOvercast.6 mph81%29.98 "Hg9 mi
9:00 AM57 °FSprinkles. Overcast.6 mph84%29.97 "Hg9 mi
8:00 AM58 °FOvercast.6 mph82%29.96 "Hg9 mi
7:00 AM58 °FPassing clouds.7 mph81%29.96 "Hg19 mi
5:00 AM58 °FOvercast.6 mph79%29.96 "Hg19 mi
4:00 AM59 °FPassing clouds.6 mph79%29.96 "Hg19 mi
Weather by CustomWeather, © 2014

See weather overviewHow to use our weather pages